Flag for Germany Weather past 2 weeks in Oelde, North Rhine-Westphalia, Germany

Now
34 °F

Light rain. Passing clouds.


Feels Like: 28 °F
Forecast: 34 / 40 °F
Wind: 7 mph from Southwest

Location: Paderborn / Lippstadt

Current Time: Jan 25, 2015 at 10:18:22 PM

Latest Report: Jan 25, 2015 at 9:50 PM


Visibility: 4 mi

Pressure: 30.30 "Hg

Humidity: 100%

Dew point: 34 °F

Location of OeldeLocation

Historic Weather in Oelde — Graph

°F

Oelde temperature yesterday

Maximum temperature yesterday: 32 °F (at 10:20 AM)
Minimum temperature yesterday: 21 °F (at 4:20 AM)
Average temperature yesterday: 29 °F

Past Weeks' High & Low Weather Summary

 TemperatureHumidityPressure
High52 °F (Jan 13, 12:50 PM)100% (Jan 17, 6:20 AM)30.36 "Hg (Jan 17, 6:20 AM)
Low21 °F (Jan 24, 4:20 AM)54% (Jan 13, 12:50 PM)29.47 "Hg (Jan 15, 3:20 PM)
Average35 °F82%29.92 "Hg
* Reported Jan 10 9:15 PM — Jan 25 9:20 PM, Oelde, Weather by CustomWeather, © 2014

Note: Actual official high and low records may vary slightly from our data, if they occured in-between our weather recording intervals... More about our weather records

Advertising

Oelde weather history for previous 24 hours

 ConditionsComfort  
Time TempWeatherWind HumidityBarometerVisibility
9:20 PM
Jan 25
34 °FLight rain. Passing clouds.8 mph100%30.33 "Hg5 mi
8:50 PM34 °FRain. Passing clouds.6 mph93%30.33 "Hg3 mi
8:20 PM32 °FRain. Partly cloudy.7 mph100%30.33 "Hg2 mi
7:50 PM34 °FPassing clouds.7 mph100%30.33 "Hg4 mi
7:20 PM34 °FPassing clouds.7 mph100%30.33 "Hg4 mi
6:50 PM34 °FDrizzle. Fog.7 mph100%30.33 "Hg3 mi
6:20 PM36 °FFog.7 mph93%30.33 "Hg3 mi
5:50 PM36 °FFog.7 mph93%30.33 "Hg3 mi
5:20 PM36 °FFog.7 mph93%30.33 "Hg2 mi
4:50 PM36 °FFog.8 mph100%30.33 "Hg2 mi
4:20 PM36 °FFog.6 mph100%30.33 "Hg3 mi
3:50 PM36 °FPartly sunny.8 mph100%30.33 "Hg4 mi
3:20 PM36 °FPartly sunny.8 mph100%30.33 "Hg4 mi
2:50 PM36 °FPartly sunny.8 mph100%30.33 "Hg3 mi
2:20 PM36 °FPartly sunny.6 mph93%30.33 "Hg3 mi
1:50 PM36 °FPartly sunny.8 mph93%30.33 "Hg3 mi
1:20 PM36 °FPartly sunny.7 mph93%30.33 "Hg4 mi
12:50 PM36 °FPartly sunny.8 mph93%30.33 "Hg4 mi
12:20 PM34 °FPartly sunny.8 mph100%30.36 "Hg4 mi
11:50 AM34 °FPartly sunny.9 mph100%30.36 "Hg4 mi
11:20 AM34 °FPartly sunny.8 mph100%30.36 "Hg4 mi
10:50 AM34 °FPartly sunny.7 mph100%30.36 "Hg4 mi
10:20 AM34 °FPartly sunny.8 mph100%30.36 "Hg4 mi
9:50 AM34 °FPartly sunny.7 mph100%30.33 "Hg4 mi
9:20 AM34 °FPartly sunny.8 mph93%30.33 "Hg4 mi
8:50 AM32 °FPartly sunny.7 mph100%30.33 "Hg4 mi
8:20 AM34 °FPartly sunny.6 mph93%30.33 "Hg4 mi
7:50 AM34 °FPassing clouds.6 mph93%30.33 "Hg4 mi
7:20 AM32 °FPassing clouds.6 mph100%30.33 "Hg4 mi
6:50 AM32 °FPassing clouds.7 mph100%30.33 "Hg3 mi
6:20 AM32 °FPassing clouds.7 mph100%30.33 "Hg4 mi
5:50 AM32 °FPassing clouds.7 mph100%30.30 "HgN/A
5:20 AM32 °FLow clouds.6 mph100%30.30 "HgN/A
4:20 AM32 °FPassing clouds.5 mph100%30.30 "HgN/A
3:50 AM32 °FPassing clouds.6 mph100%30.30 "HgN/A
3:20 AM32 °FPassing clouds.6 mph100%30.30 "HgN/A
2:50 AM32 °FPassing clouds.6 mph100%30.27 "HgN/A
2:20 AM32 °FPassing clouds.8 mph100%30.27 "HgN/A
1:50 AM32 °FPassing clouds.6 mph100%30.27 "HgN/A
1:20 AM32 °FPassing clouds.6 mph100%30.27 "HgN/A
12:50 AM32 °FPassing clouds.7 mph100%30.27 "HgN/A
12:20 AM32 °FLow clouds.7 mph100%30.27 "HgN/A
11:50 PM
Jan 24
32 °FPartly cloudy.7 mph100%30.24 "Hg4 mi
10:50 PM32 °FIce fog.7 mph100%30.24 "Hg3 mi
10:20 PM32 °FIce fog.5 mph100%30.24 "Hg3 mi
Weather by CustomWeather, © 2014

See weather overviewHow to use our weather pages